This is the latest recevied weather packets stored in our database for station/object WV8BRW. If no packets are shown the sender has not sent any weather packets the latest 10 day(s).
| Time | Temp. | Humidity | Pressure | Rain* | Wind** | Luminosity | Snow |
|---|---|---|---|---|---|---|---|
| 1778033595 | 17.22° C | 74% | 1006.7 hPa | 0 mm | - | 0 W/m² | - |
| 1778033292 | 17.22° C | 74% | 1006.8 hPa | 0 mm | - | 0 W/m² | - |
| 1778032990 | 17.22° C | 78% | 1006.8 hPa | 0 mm | - | 0 W/m² | - |
| 1778032687 | 17.22° C | 77% | 1006.8 hPa | 0 mm | - | 0 W/m² | - |
| 1778032385 | 17.78° C | 75% | 1006.7 hPa | 0 mm | - | 0 W/m² | - |
| 1778032081 | 17.78° C | 73% | 1006.3 hPa | 0 mm | - | 0 W/m² | - |
| 1778031778 | 17.78° C | 73% | 1006.4 hPa | 0 mm | - | 0 W/m² | - |
| 1778031475 | 17.78° C | 74% | 1006.4 hPa | 0 mm | - | 0 W/m² | - |
| 1778031172 | 17.78° C | 72% | 1006.5 hPa | 0 mm | - | 0 W/m² | - |
| 1778030868 | 17.78° C | 72% | 1006.3 hPa | 0 mm | - | 0 W/m² | - |
| 1778030565 | 17.78° C | 71% | 1006.7 hPa | 0 mm | - | 0 W/m² | - |
| 1778030263 | 17.78° C | 72% | 1006.5 hPa | 0 mm | - | 0 W/m² | - |
| 1778029959 | 18.33° C | 72% | 1006.4 hPa | 0 mm | - | 0 W/m² | - |
| 1778029657 | 18.33° C | 71% | 1006.4 hPa | 0 mm | - | 0 W/m² | - |
| 1778029354 | 18.33° C | 72% | 1006.5 hPa | 0 mm | - | 0 W/m² | - |
| 1778029052 | 18.33° C | 71% | 1006.3 hPa | 0 mm | - | 0 W/m² | - |
| 1778028748 | 18.33° C | 69% | 1006.7 hPa | 0 mm | - | 0 W/m² | - |
| 1778028444 | 18.33° C | 69% | 1006.3 hPa | 0 mm | - | 0 W/m² | - |
| 1778028142 | 18.89° C | 69% | 1006.5 hPa | 0 mm | - | 0 W/m² | - |
| 1778027837 | 18.89° C | 68% | 1006.6 hPa | 0 mm | - | 0 W/m² | - |
| 1778027534 | 18.89° C | 66% | 1006.6 hPa | 0 mm | - | 0 W/m² | - |
| 1778027230 | 19.44° C | 66% | 1006.6 hPa | 0 mm | - | 0 W/m² | - |
| 1778026926 | 19.44° C | 67% | 1006.6 hPa | 0 mm | - | 0 W/m² | - |
| 1778026622 | 19.44° C | 63% | 1006.8 hPa | 0 mm | - | 0 W/m² | - |
| 1778026320 | 20° C | 62% | 1007.1 hPa | 0 mm | - | 0 W/m² | - |
* Rain latest hour (hover to see other rain measurements)
** Current wind speed in m/s (hover to see current wind gust speed)